Погода в Озерках

Россия / Республика Марий Эл     56°23′18″N   46°31′01″E
темп.,
°C
ветер,
м/с
пор.,
м/с
влажн.,
%
обл.,
%
осадки,
мм/ч
давл.,
гПа
погр.,
м
22 апреля, чт
чт2200:00+4ююв51492100 0.4 1016781
03:00+5ююз4994100 0.6 1017548
06:00+5ю4990100 0.1 1019451
09:00+6ю41083100 0.2 1019609
12:00+11ю695980 0.1 10191585
15:00+7зюз278317 2.6 1020451
18:00+9юз257525 0.1 1020214
21:00+5ююз11885 0.1 102210
23 апреля, пт
пт2300:00+4ю22915 0.0 102216
03:00+4ююв23915 0.0 102347
06:00+5ююв26885 0.0 1023142
09:00+12ю46608 0.0 1023531
12:00+15ююв334531 0.0 10221805
15:00+14ю2451100 0.0 1022518
18:00+12юв226122 0.0 102143
21:00+10вюв2669100 0.0 1020130
24 апреля, сб
сб2400:00+9вюв397798 0.0 1019245
03:00+6вюв388999 0.0 1018182
06:00+7вюв31183100 0.0 1016363
09:00+11вюв4769100 0.0 1014741
12:00+11вюв5772100 0.1 10121071
15:00+9вюв5778100 0.3 1011893
18:00+8вюв4886100 0.1 1009961
21:00+7вюв498696 0.1 1007830
25 апреля, вс
вс2500:00+7вюв51088100 0.1 1005777
03:00+4з51096100 3.0 1004503
06:00+4з61393100 0.7 1005922
09:00+7з611665 0.7 10061394
12:00+10з7114358 0.0 10072395
15:00+11зюз61039100 0.0 10092795
18:00+8з48525 0.2 10101134
21:00+4юз27735 0.2 1012143
26 апреля, пн
пн2600:00+3юз39795 0.0 1012227
03:00+2юз310855 0.0 1013320
06:00+2юз410794 0.0 1014405
09:00+7зюз58545 0.0 10151466
12:00+10зюз5840100 0.0 10142435
15:00+10зюз4843100 0.1 10142158
18:00+8юз365515 0.1 1013425
21:00+4ююз22786 0.1 101340